Location: Hope
(40.9110°N, 74.9680°W)
Time: 23:21:32
(UTC-05:00)

OTV 5 (USA 277) - Pass Details

Date: 30 January 2019
Orbit: 342 x 346 km, 54.5° (Epoch: 09 February)

Event Time Altitude Azimuth Distance (km) Brightness Sun altitude
Exits shadow 04:55:20 11° 48° (NE) 1,248 ? -26.0°
Drops below altitude 10° 04:55:22 11° 48° (NE) 1,266 ? -26.0°
Sets 04:57:27 0° 49° (NE) 2,137 ? -25.6°
